Weather Roundup
Issued by NWS Springfield, MO

Home | Current Version | Previous Version | Text Only | Print | Product List | Glossary On
Versions: 1 2 3 4 5 6 7 8 9 10 11 12 13 14 15 16 17 18 19 20 21 22 23 24 25 26 27 28 29 30 31 32 33 34 35 36 37 38 39 40 41 42 43 44 45 46 47 48 49 50
000
NZUS99 KSGF 290857
HRRSGF

HOURLY WEATHER
NATIONAL WEATHER SERVICE SPRINGFIELD MO
400 AM CDT SUN MAY 29 2016

......SGF CWA......

CITY           SKY/WX    TMP DP  RH WIND       PRES   REMARKS
SPRINGFIELD    CLEAR     63  60  90 S5        30.06F
JOPLIN         CLEAR     64  62  93 S5        30.07S
WEST PLAINS    CLEAR     66  63  90 W5        30.08R
ROLLA          CLEAR     63  61  93 SW6       30.04R

......SURROUNDING SGF CWA......

CITY           SKY/WX    TMP DP  RH WIND       PRES   REMARKS
CHANUTE        CLEAR     62  60  93 CALM      30.06R
PARSONS        CLEAR     61  60  97 CALM      30.07R
COFFEYVILLE    CLEAR     63  62  97 CALM      30.05S
EMPORIA        CLEAR     60  57  89 S8        30.05S
HARRISON AR    CLEAR     66  64  93 W5        30.09S

......KANSAS AND MISSOURI......

CITY           SKY/WX    TMP DP  RH WIND       PRES   REMARKS
KANSAS CTY INT CLEAR     60  57  89 S7        30.03R
SEDALIA        CLEAR     65  62  90 SW7       30.05R
ST JOSEPH      CLEAR     58  57  97 CALM      30.01S
ST LOUIS       PTCLDY    68  59  73 CALM      30.03S
WICHITA        CLEAR     64  58  80 SE5       30.05S
TOPEKA           N/A     59  57  93 CALM      30.03R
OLATHE         CLEAR     60  58  92 CALM      30.05R

......TENNESSEE......

CITY           SKY/WX    TMP DP  RH WIND       PRES   REMARKS
MEMPHIS        NOT AVBL
NASHVILLE      PTCLDY    66  63  90 CALM      30.09S

......ARKANSAS.......

CITY           SKY/WX    TMP DP  RH WIND       PRES   REMARKS
FAYETTEVILLE   CLEAR     61  61 100 CALM      30.09F FOG
FT SMITH       CLEAR     68  65  90 NE3       30.05S
LITTLE ROCK    CLEAR     69  66  90 W3        30.05S

......OKLAHOMA.......

CITY           SKY/WX    TMP DP  RH WIND       PRES   REMARKS
TULSA          CLEAR     71  68  90 S5        30.03S
PONCA CITY     CLEAR     66  63  90 SE5       30.03S
MCALESTER      CLOUDY    70  67  90 CALM      30.05S
OKLAHOMA CITY  CLOUDY    71  70  96 S8        30.04R

......IOWA............

CITY           SKY/WX    TMP DP  RH WIND       PRES   REMARKS
DES MOINES     NOT AVBL
QUAD CITIES    CLEAR     67  58  72 SW10G18   29.93S

......ILLINOIS........

CITY           SKY/WX    TMP DP  RH WIND       PRES   REMARKS
QUINCY         CLEAR     63  59  87 SW7       30.00S
CHICAGO        MOCLDY    64  61  90 SW5       29.95R



USA.gov is the U.S. government's official web portal to all federal, state and local government web resources and services.